64013000, 5301503, 2016-12-27 00:00:00, 13.35740, 109.26680, 122,   7,  12, -5.00, 1008.40, 14.80, 0,   9, 255, 0.000
64013000, 5301503, 2016-12-27 01:00:00, 13.35720, 109.26680,   0,   9,   3, -5.00, 1008.20, 14.80, 0,  17, 255, 0.000
64013000, 5301503, 2016-12-27 02:00:00, 13.35720, 109.26680,  62,   7,  12, -5.00, 1008.10, 14.80, 0,   1, 255, 0.000
64013000, 5301503, 2016-12-27 03:00:00, 13.35740, 109.26680,   0,   8,  10, -5.00, 1008.20, 14.80, 0,  21, 255, 0.000
64013000, 5301503, 2016-12-27 04:00:00, 13.35740, 109.26680,  60,   9,  12, -5.00, 1008.30, 14.80, 0,  10, 255, 0.000
64013000, 5301503, 2016-12-27 05:00:00, 13.35740, 109.26680, 120,   8,  12, -5.00, 1008.80, 14.80, 0,   9, 255, 0.000
64013000, 5301503, 2016-12-27 06:00:00, 13.35740, 109.26680, 180,   8,  12, -5.00, 1008.80, 14.80, 0,   7, 255, 0.000
64013000, 5301503, 2016-12-27 07:00:00, 13.35740, 109.26680,   0,   8,   5, -5.00, 1008.90, 14.80, 0,  12, 255, 0.000
64013000, 5301503, 2016-12-27 08:00:00, 13.35740, 109.26680,   0,   9,   5, -5.00, 1008.90, 14.80, 0,  17, 255, 0.000
64013000, 5301503, 2016-12-27 09:00:00, 13.35720, 109.26680,   0,   9,   9, -5.00, 1008.60, 14.80, 0,  18, 255, 0.000
64013000, 5301503, 2016-12-27 10:00:00, 13.35740, 109.26680,   0,   8,  10, -5.00, 1008.40, 14.80, 1,   8, 255, 0.000
64013000, 5301503, 2016-12-27 11:00:00, 13.35740, 109.26680,  60,   7,  12, -5.00, 1008.00, 14.80, 0,   1, 255, 0.000
64013000, 5301503, 2016-12-27 12:00:00, 13.35740, 109.26680, 120,   8,  12, -5.00, 1007.50, 14.80, 0,  17, 255, 0.000
64013000, 5301503, 2016-12-27 13:00:00, 13.35740, 109.26680,   0,   8,   3, -5.00, 1006.90, 14.80, 0,   1, 255, 0.000
64013000, 5301503, 2016-12-27 14:00:00, 13.35740, 109.26680,  62,   8,  12, -5.00, 1006.30, 14.80, 0,  20, 255, 0.000
64013000, 5301503, 2016-12-27 15:00:00, 13.35740, 109.26680, 122,   9,  12, -5.00, 1005.80, 14.80, 0,  16, 255, 0.000
64013000, 5301503, 2016-12-27 16:00:00, 13.35740, 109.26680,   0,   8,   2, -5.00, 1005.30, 14.80, 0,  10, 255, 0.000
64013000, 5301503, 2016-12-27 17:00:00, 13.35740, 109.26680,  63,   9,  12, -5.00, 1004.80, 14.80, 1,   7, 255, 0.000
64013000, 5301503, 2016-12-27 18:00:00, 13.35740, 109.26680, 123,   7,  12, -5.00, 1004.30, 14.80, 0,   8, 255, 0.000
64013000, 5301503, 2016-12-27 19:00:00, 13.35720, 109.26680,   0,   8,   7, -5.00, 1003.90, 14.80, 0,   8, 255, 0.000
64013000, 5301503, 2016-12-27 20:00:00, 13.35720, 109.26680,  61,   8,  12, -5.00, 1003.40, 14.80, 0,   8, 255, 0.000
64013000, 5301503, 2016-12-27 21:00:00, 13.35720, 109.26680, 121,   4,  12, -5.00, 1003.00, 14.80, 0,   8, 255, 0.000
64013000, 5301503, 2016-12-27 22:00:00, 13.35720, 109.26680, 181,   7,  12, -5.00, 1002.60, 14.80, 0,   8, 255, 0.000
64013000, 5301503, 2016-12-27 23:00:00, 13.35720, 109.26680, 241,   7,  12, -5.00, 1002.20, 14.80, 0,   8, 255, 0.000
64013000, 5301503, 2016-12-28 00:00:00, 13.35720, 109.26680, 301,   6,  12, -5.00, 1001.70, 14.80, 0,   8, 255, 0.000
64013000, 5301503, 2016-12-28 01:00:00, 13.35740, 109.26680,   0,   8,  11, -5.00, 1001.20, 14.80, 1,   8, 255, 0.000
64013000, 5301503, 2016-12-28 02:00:00, 13.35720, 109.26680,   0,   8,   8, -5.00, 1000.60, 14.80, 0,   1, 255, 0.000
64013000, 5301503, 2016-12-28 19:00:00, 13.35740, 109.26680,   0,   8,   4, -5.00, 995.60, 14.80, 0,   1, 255, 0.000
64013000, 5301503, 2016-12-28 20:00:00, 13.35740, 109.26680,  62,   8,  12, -5.00, 995.40, 14.80, 0,  15, 255, 0.000
64013000, 5301503, 2016-12-29 05:00:00, 13.35740, 109.26680,  62,   7,  12, -5.00, 994.60, 14.80, 1,   1, 255, 0.000
64013000, 5301503, 2016-12-29 06:00:00, 13.35740, 109.26680, 122,   8,  12, -5.00, 994.70, 14.80, 0,  16, 255, 0.000
64013000, 5301503, 2016-12-29 07:00:00, 13.35720, 109.26680,   0,   7,   5, -5.00, 994.70, 14.80, 0,   8, 255, 0.000
64015370, 5301502, 2016-12-27 00:00:00, 6.97080, 103.81500, 723,   0,  12, 35.95, 1005.80, 9.00, 1,  11, 255, 0.000
64015370, 5301502, 2016-12-27 01:00:00, 6.97080, 103.81500, 783,   0,  12, 35.95, 1006.30, 9.40, 1,  21, 255, 0.000
64015370, 5301502, 2016-12-27 02:00:00, 6.97080, 103.81500, 843,   0,  12, 35.95, 1007.00, 9.00, 1,  11, 255, 0.000
64015370, 5301502, 2016-12-27 03:00:00, 6.97080, 103.81500, 903,   0,  12, 35.95, 1007.10, 9.00, 1,  10, 255, 0.000
64015370, 5301502, 2016-12-27 04:00:00, 6.97080, 103.81500, 963,   0,  12, 35.95, 1006.70, 9.00, 1,  11, 255, 0.000
64015370, 5301502, 2016-12-27 05:00:00, 6.97080, 103.81500, 1023,   0,  12, 35.95, 1006.10, 9.00, 1,   4, 255, 0.000
64015370, 5301502, 2016-12-27 06:00:00, 6.97080, 103.81500, 1083,   0,  12, 35.95, 1005.10, 9.00, 2,  19, 255, 0.000
64015370, 5301502, 2016-12-27 07:00:00, 6.97080, 103.81500, 1143,   0,  12, 35.95, 1004.20, 9.00, 2,   9, 255, 0.000
64015370, 5301502, 2016-12-27 08:00:00, 6.97080, 103.81500, 1203,   0,  12, 35.95, 1003.30, 9.40, 2,   9, 255, 0.000
64015370, 5301502, 2016-12-27 09:00:00, 6.97080, 103.81500, 1263,   0,  12, 35.95, 1003.20, 9.20, 1,   8, 255, 0.000
64015370, 5301502, 2016-12-27 10:00:00, 6.97080, 103.81500, 1323,   0,  12, 35.95, 1003.40, 9.00, 1,   8, 255, 0.000
64015370, 5301502, 2016-12-27 11:00:00, 6.97080, 103.81500, 1383,   0,  12, 35.95, 1003.90, 9.00, 1,   1, 255, 0.000
64015370, 5301502, 2016-12-27 12:00:00, 6.97080, 103.81500, 1443,   0,  12, 35.95, 1004.50, 9.00, 1,  17, 255, 0.000
64015370, 5301502, 2016-12-27 13:00:00, 6.97080, 103.81500, 1503,   0,  12, 35.95, 1004.90, 9.00, 1,  24, 255, 0.000
64015370, 5301502, 2016-12-27 14:00:00, 6.97080, 103.81500, 1563,   0,  12, 35.95, 1005.80, 9.00, 0,   7, 255, 0.000
64015370, 5301502, 2016-12-27 15:00:00, 6.97080, 103.81500, 1623,   0,  12, 35.95, 1006.20, 9.00, 0,   8, 255, 0.000
64015370, 5301502, 2016-12-27 16:00:00, 6.97080, 103.81500, 1683,   0,  12, 35.95, 1005.70, 9.40, 0,  10, 255, 0.000
64015370, 5301502, 2016-12-27 17:00:00, 6.97080, 103.81500, 1743,   0,  12, 35.95, 1006.40, 9.00, 0,  12, 255, 0.000
64015370, 5301502, 2016-12-27 18:00:00, 6.97080, 103.81500, 1803,   0,  12, 35.95, 1006.70, 9.00, 0,   8, 255, 0.000
64015370, 5301502, 2016-12-27 19:00:00, 6.97080, 103.81500, 1863,   0,  12, 35.95, 1006.50, 9.00, 0,  10, 255, 0.000
64015370, 5301502, 2016-12-27 20:00:00, 6.97080, 103.81500, 1923,   0,  12, 35.95, 1006.30, 9.00, 0,   1, 255, 0.000
64015370, 5301502, 2016-12-27 21:00:00, 6.97080, 103.81500, 1983,   0,  12, 35.95, 1006.10, 9.00, 0,  10, 255, 0.000
64015370, 5301502, 2016-12-27 22:00:00, 6.97080, 103.81500, 2043,   0,  12, 35.95, 1006.30, 9.00, 0,  10, 255, 0.000
64015370, 5301502, 2016-12-27 23:00:00, 6.97080, 103.81500, 2103,   0,  12, 35.95, 1006.70, 9.00, 0,   8, 255, 0.000
64015370, 5301502, 2016-12-28 00:00:00, 6.97080, 103.81500, 2163,   0,  12, 35.95, 1007.50, 9.00, 0,  11, 255, 0.000
64015370, 5301502, 2016-12-28 01:00:00, 6.97080, 103.81500, 2223,   0,  12, 35.95, 1008.20, 8.80, 0,  14, 255, 0.000
64015370, 5301502, 2016-12-28 02:00:00, 6.97080, 103.81500, 2283,   0,  12, 35.95, 1007.90, 8.80, 1,  11, 255, 0.000
64015370, 5301502, 2016-12-28 03:00:00, 6.97080, 103.81500, 2343,   0,  12, 35.95, 1008.50, 8.80, 1,  11, 255, 0.000
64015370, 5301502, 2016-12-28 04:00:00, 6.97080, 103.81500, 2404,   0,  12, 31.41, 1009.10, 8.60, 0,  11, 255, 0.000
64015370, 5301502, 2016-12-28 05:00:00, 6.97080, 103.81500, 2464,   0,  12, 35.95, 1008.50, 8.80, 0,  11, 255, 0.000
64015370, 5301502, 2016-12-28 06:00:00, 6.97080, 103.81500, 2524,   0,  12, 35.95, 1007.40, 8.80, 0,  19, 255, 0.000
64015370, 5301502, 2016-12-28 07:00:00, 6.97080, 103.81500, 2583,   0,  12, 35.95, 1006.40, 8.80, 0,  12, 255, 0.000
64015370, 5301502, 2016-12-28 08:00:00, 6.97080, 103.81500, 2643,   0,  12, 35.95, 1005.90, 8.80, 0,   9, 255, 0.000
64015370, 5301502, 2016-12-28 09:00:00, 6.97080, 103.81500, 2703,   0,  12, 35.95, 1005.80, 9.20, 0,   9, 255, 0.000
64015370, 5301502, 2016-12-28 10:00:00, 6.97080, 103.81500, 2763,   0,  12, 35.95, 1005.50, 9.40, 0,  10, 255, 0.000
64015370, 5301502, 2016-12-28 11:00:00, 6.97080, 103.81500, 2823,   0,  12, 35.95, 1005.60, 9.80, 0,  10, 255, 0.000
64015370, 5301502, 2016-12-28 12:00:00, 6.97080, 103.81500, 2883,   0,  12, 35.95, 1006.10, 9.60, 0,  10, 255, 0.000
64015370, 5301502, 2016-12-28 13:00:00, 6.97080, 103.81500, 2943,   0,  12, 35.95, 1006.50, 9.20, 0,  11, 255, 0.000
64015370, 5301502, 2016-12-28 14:00:00, 6.97080, 103.81500, 3003,   0,  12, 35.95, 1007.20, 8.80, 0,   9, 255, 0.000
64015370, 5301502, 2016-12-28 15:00:00, 6.97080, 103.81500, 3063,   0,  12, 35.95, 1007.60, 8.80, 0,  11, 255, 0.000
64015370, 5301502, 2016-12-28 16:00:00, 6.97080, 103.81500, 3123,   0,  12, 35.95, 1007.80, 8.80, 0,  12, 255, 0.000
64015370, 5301502, 2016-12-28 17:00:00, 6.97080, 103.81500, 3183,   0,  12, 35.95, 1007.70, 8.80, 0,   9, 255, 0.000
64015370, 5301502, 2016-12-28 18:00:00, 6.97080, 103.81500, 3243,   0,  12, 35.95, 1007.50, 8.80, 0,   8, 255, 0.000
64015370, 5301502, 2016-12-28 19:00:00, 6.97080, 103.81500, 3303,   0,  12, 35.95, 1007.20, 9.40, 0,   7, 255, 0.000
64015370, 5301502, 2016-12-28 20:00:00, 6.97080, 103.81500, 3363,   0,  12, 35.95, 1006.90, 9.20, 0,  10, 255, 0.000
64015370, 5301502, 2016-12-28 21:00:00, 6.97080, 103.81500, 3423,   0,  12, 35.95, 1006.50, 9.60, 0,   7, 255, 0.000
64015370, 5301502, 2016-12-28 22:00:00, 6.97080, 103.81500, 3483,   0,  12, 35.95, 1005.60, 9.40, 0,  19, 255, 0.000
64015370, 5301502, 2016-12-28 23:00:00, 6.97080, 103.81500, 3543,   0,  12, 35.95, 1007.10, 9.40, 0,   1, 255, 0.000
64015370, 5301502, 2016-12-29 00:00:00, 6.97080, 103.81500, 3603,   0,  12, 35.95, 1008.10, 9.00, 0,   8, 255, 0.000
64015370, 5301502, 2016-12-29 01:00:00, 6.97080, 103.81500, 3663,   0,  12, 35.95, 1009.50, 8.80, 0,   8, 255, 0.000
64015370, 5301502, 2016-12-29 02:00:00, 6.97080, 103.81500, 3723,   0,  12, 35.95, 1010.20, 8.80, 0,   9, 255, 0.000
64015370, 5301502, 2016-12-29 03:00:00, 6.97080, 103.81500, 3783,   0,  12, 35.95, 1010.10, 8.80, 0,  12, 255, 0.000
64015370, 5301502, 2016-12-29 04:00:00, 6.97080, 103.81500, 3843,   0,  12, 35.95, 1009.60, 8.80, 0,   4, 255, 0.000
64015370, 5301502, 2016-12-29 05:00:00, 6.97080, 103.81500, 3903,   0,  12, 35.95, 1008.90, 8.80, 0,  10, 255, 0.000
64015370, 5301502, 2016-12-29 06:00:00, 6.97080, 103.81500, 3963,   0,  12, 35.95, 1007.90, 8.80, 0,  10, 255, 0.000
64015370, 5301502, 2016-12-29 07:00:00, 6.97080, 103.81500, 4023,   0,  12, 35.95, 1006.50, 8.80, 0,  10, 255, 0.000
64015370, 5301502, 2016-12-29 08:00:00, 6.97080, 103.81500, 4083,   0,  12, 35.95, 1005.10, 8.80, 0,  15, 255, 0.000
64015370, 5301502, 2016-12-29 09:00:00, 6.97080, 103.81500,  47,   0,  12, 35.79, 1004.80, 8.80, 0,  12, 255, 0.000
64015370, 5301502, 2016-12-29 10:00:00, 6.97080, 103.81500, 107,   0,  12, 35.95, 1003.70, 8.80, 0,   7, 255, 0.000
64015370, 5301502, 2016-12-29 11:00:00, 6.97080, 103.81500, 167,   0,  12, 35.20, 1002.30, 8.80, 0,  22, 255, 0.000
64015370, 5301502, 2016-12-29 12:00:00, 6.97080, 103.81500, 227,   0,  12, 35.95, 1003.20, 8.60, 0,   9, 255, 0.000
64015370, 5301502, 2016-12-29 13:00:00, 6.97080, 103.81500, 287,   0,  12, 35.90, 1003.30, 8.60, 0,  10, 255, 0.000
64015370, 5301502, 2016-12-29 14:00:00, 6.97080, 103.81500, 347,   0,  12, 35.95, 1005.10, 8.80, 0,  13, 255, 0.000
64015370, 5301502, 2016-12-29 15:00:00, 6.97080, 103.81500, 407,   0,  12, 35.84, 1006.00, 8.60, 0,  13, 255, 0.000
64015370, 5301502, 2016-12-29 16:00:00, 6.97080, 103.81500, 467,   0,  12, 35.95, 1005.60, 8.80, 0,  10, 255, 0.000
64015370, 5301502, 2016-12-29 17:00:00, 6.97080, 103.81500, 527,   0,  12, 35.95, 1006.20, 9.80, 0,   8, 255, 0.000
64015370, 5301502, 2016-12-29 18:00:00, 6.97080, 103.81500, 587,   0,  12, 35.95, 1005.70, 9.20, 0,  11, 255, 0.000
64015370, 5301502, 2016-12-29 19:00:00, 6.97080, 103.81500, 647,   0,  12, 35.95, 1004.00, 8.60, 0,   9, 255, 0.000
64015370, 5301502, 2016-12-29 20:00:00, 6.97080, 103.81500, 707,   0,  12, 35.89, 1003.60, 8.60, 0,  24, 255, 0.000
64015370, 5301502, 2016-12-29 21:00:00, 6.97080, 103.81500, 767,   0,  12, 35.74, 1003.80, 8.60, 0,  20, 255, 0.000
64015370, 5301502, 2016-12-29 22:00:00, 6.97080, 103.81500, 827,   0,  12, 35.60, 1003.90, 8.60, 0,  11, 255, 0.000
64015370, 5301502, 2016-12-29 23:00:00, 6.97080, 103.81500, 887,   0,  12, 35.52, 1003.80, 8.60, 0,   8, 255, 0.000
64015370, 5301502, 2016-12-30 00:00:00, 6.55820, 103.39160,   0,  11,   2, 35.91, 994.70, 8.60, 4,  10, 255, 0.000
64015370, 5301502, 2016-12-30 01:00:00, 6.55820, 103.39160,  63,  11,  12, 35.95, 1003.40, 8.60, 2,  10, 255, 0.000
64015370, 5301502, 2016-12-30 02:00:00, 6.55820, 103.39160, 123,  11,  12, 35.95, 1004.90, 9.00, 2,   9, 255, 0.000
64015370, 5301502, 2016-12-30 03:00:00, 6.55820, 103.39160, 183,  11,  12, 35.95, 1005.80, 9.00, 1,  22, 255, 0.000
64015370, 5301502, 2016-12-30 04:00:00, 6.55060, 103.36720,   0,  11,   1, 35.95, 1004.20, 9.20, 1,  11, 255, 0.000
64015370, 5301502, 2016-12-30 05:00:00, 6.55060, 103.36720,  63,  11,  12, 35.95, 1002.80, 8.60, 1,  10, 255, 0.000
64015370, 5301502, 2016-12-30 06:00:00, 6.55060, 103.36720, 123,  11,  12, 35.95, 1002.30, 8.60, 1,  18, 255, 0.000
64015370, 5301502, 2016-12-30 07:00:00, 6.55060, 103.36720, 183,  11,  12, 35.95, 999.30, 8.60, 1,  11, 255, 0.000
